Meath Environmental Platform

Observations for Trim Market St

Time AQI Temp °C Hum % Pres Pa CO μg/m³ H₂S μg/m³ NO μg/m³ NO₂ μg/m³ O₃ μg/m³ SO₂ μg/m³ PM1 μg/m³ PM2.5 μg/m³ PM10 μg/m³
Wednesday 15 July 2026
04:12 1 17.5 76 29,395 0.17 0 0 7.96 18.11 0 7.84 10.87 15.19
04:10 1 17.5 76 30,123 0.17 0 0 5.79 19.79 0 8.55 14.22 20.52
04:04 1 17.5 76 31,811 0.16 0 0 8.02 25.46 0 6.41 10.43 16.42
04:02 1 17.5 76 32,640 0.16 0 0 7.43 23.81 0 7.84 10.43 15.83
04:01 1 17.5 76 33,045 0.16 0 0 7.23 22.79 0 9.26 13.78 19.39
03:53 1 17.5 75 36,069 0.16 0 0 6.08 27.12 0 8.55 11.9 16.46
03:51 1 17.5 75 36,327 0.16 0 0 5.79 21 0 7.13 10.95 17.66
03:50 1 17.5 75 36,752 0.16 0 0 6.9 19.76 0 7.13 11.43 16.48
03:49 1 17.5 75 37,116 0.16 0 0 6.2 23.37 0 7.84 11.43 17.07
03:48 1 17.5 75 37,582 0.16 0 0 8.41 23.24 0 7.84 10.48 16.49
03:47 1 17.5 75 37,968 0.17 0 0 5.71 20.63 0 5.7 10 14.7
03:46 1 17.5 75 38,279 0.16 0 0 6.42 21.31 0 7.84 13.36 20.08
03:45 1 17.5 75 38,795 0.16 0 0 6.62 21.26 0 7.13 10.97 15.3
03:44 1 17.5 75 39,297 0.16 0 0 6.33 22.85 0 7.84 12.41 18.3
03:43 1 17.5 75 39,760 0.16 0 0 6.03 21 0 7.84 10.5 14.71
03:42 1 17.5 75 40,217 0.16 0 0 9.75 22.72 0 7.84 10.5 14.72
03:41 1 17.5 75 40,686 0.15 0 0 6.56 21.01 0 7.84 11.47 17.12
03:40 1 17.5 75 40,836 0.17 0 0 6.86 23.5 0 4.99 10.51 15.32
03:39 1 17.5 74 41,027 0.17 0 0 7.27 20.73 0 7.84 9.56 15.33
03:38 1 17.5 74 41,278 0.15 0 0 5.77 27.44 0 7.84 11.96 16.53